BTK6337 WAHS-WIII

Flight info

Callsign BTK6337
Flight time 0h 50m
Altitude 32000
Route KIDET W16 IMU
Aircraft A320/M-SDE3FGHIRWY/LB1

Departure

Time 2026-04-15 06:31
Airport Jenderal Ahmad Yani Airport (WAHS)

Arrival

Time 2026-04-15 07:21
Airport Soekarno-Hatta International Airport (WIII)
Time Latitude Longitude Altitude Speed Heading
2026-04-15 05:53 -6.96686 110.37425 19 ft 0 kts 40°
2026-04-15 06:22 -6.96694 110.37418 20 ft 3 kts 39°
2026-04-15 06:23 -6.96710 110.37405 19 ft 3 kts 40°
2026-04-15 06:23 -6.96725 110.37391 21 ft 3 kts 41°
2026-04-15 06:23 -6.96729 110.37388 21 ft 0 kts 39°
2026-04-15 06:23 -6.96738 110.37381 19 ft 1 kts 11°
2026-04-15 06:24 -6.96746 110.37380 19 ft 1 kts 338°
2026-04-15 06:24 -6.96754 110.37383 19 ft 1 kts 321°
2026-04-15 06:24 -6.96760 110.37388 19 ft 1 kts 314°
2026-04-15 06:24 -6.96764 110.37392 19 ft 0 kts 311°
2026-04-15 06:27 -6.96749 110.37375 19 ft 9 kts 311°
2026-04-15 06:27 -6.96703 110.37321 19 ft 12 kts 310°
2026-04-15 06:27 -6.96647 110.37254 19 ft 13 kts 310°
2026-04-15 06:27 -6.96618 110.37201 19 ft 8 kts 250°
2026-04-15 06:28 -6.96665 110.37157 18 ft 11 kts 220°
2026-04-15 06:28 -6.96736 110.37097 14 ft 17 kts 220°
2026-04-15 06:28 -6.96788 110.37004 7 ft 17 kts 294°
2026-04-15 06:28 -6.96705 110.36902 6 ft 20 kts 310°
2026-04-15 06:29 -6.96608 110.36786 6 ft 23 kts 310°
2026-04-15 06:29 -6.96500 110.36658 5 ft 24 kts 310°
2026-04-15 06:29 -6.96394 110.36533 5 ft 24 kts 310°
2026-04-15 06:29 -6.96299 110.36419 4 ft 15 kts 304°
2026-04-15 06:30 -6.96250 110.36342 4 ft 10 kts 357°
2026-04-15 06:30 -6.96254 110.36370 4 ft 5 kts 137°
2026-04-15 06:30 -6.96281 110.36402 6 ft 13 kts 129°
2026-04-15 06:30 -6.96511 110.36673 5 ft 86 kts 130°
2026-04-15 06:31 -6.97032 110.37286 5 ft 141 kts 131°
2026-04-15 06:31 -6.97756 110.38126 243 ft 166 kts 130°
2026-04-15 06:31 -6.98393 110.39118 944 ft 171 kts 116°
2026-04-15 06:31 -6.98860 110.40213 1670 ft 172 kts 113°
2026-04-15 06:32 -6.99162 110.40979 1878 ft 185 kts 112°
2026-04-15 06:32 -6.99851 110.42728 2248 ft 218 kts 112°
2026-04-15 06:32 -7.00240 110.43700 2491 ft 234 kts 112°
2026-04-15 06:32 -7.00883 110.45290 2916 ft 256 kts 112°
2026-04-15 06:33 -7.01571 110.46960 3808 ft 259 kts 112°
2026-04-15 06:33 -7.02213 110.48663 4746 ft 262 kts 103°
2026-04-15 06:33 -7.02298 110.50503 5616 ft 267 kts 81°
2026-04-15 06:33 -7.01680 110.52276 6482 ft 273 kts 60°
2026-04-15 06:34 -7.00409 110.53724 7304 ft 283 kts 38°
2026-04-15 06:34 -6.98617 110.54602 7937 ft 294 kts 15°
2026-04-15 06:34 -6.96604 110.55025 8802 ft 297 kts 13°
2026-04-15 06:34 -6.94570 110.55465 9581 ft 302 kts 13°
2026-04-15 06:35 -6.92492 110.55927 10249 ft 312 kts 13°
2026-04-15 06:35 -6.90294 110.56425 10461 ft 336 kts 13°
2026-04-15 06:35 -6.87948 110.56961 10712 ft 354 kts 13°
2026-04-15 06:35 -6.85555 110.57507 11259 ft 361 kts 13°
2026-04-15 06:36 -6.83089 110.58067 11906 ft 365 kts 13°
2026-04-15 06:36 -6.80604 110.58623 12543 ft 368 kts 12°
2026-04-15 06:36 -6.78041 110.58832 13134 ft 372 kts 357°
2026-04-15 06:36 -6.75489 110.58361 13733 ft 375 kts 341°
2026-04-15 06:37 -6.73133 110.57227 14329 ft 378 kts 326°
2026-04-15 06:37 -6.71139 110.55507 14899 ft 380 kts 310°
2026-04-15 06:37 -6.69587 110.53350 15458 ft 382 kts 303°
2026-04-15 06:37 -6.68106 110.51121 16030 ft 385 kts 303°
2026-04-15 06:38 -6.66606 110.48879 16574 ft 387 kts 303°
2026-04-15 06:38 -6.65094 110.46625 17103 ft 390 kts 303°
2026-04-15 06:38 -6.63569 110.44357 17629 ft 393 kts 303°
2026-04-15 06:38 -6.62032 110.42070 18154 ft 396 kts 303°
2026-04-15 06:39 -6.60484 110.39768 18661 ft 399 kts 303°
2026-04-15 06:39 -6.58924 110.37450 19151 ft 402 kts 303°
2026-04-15 06:39 -6.57351 110.35111 19629 ft 405 kts 303°
2026-04-15 06:39 -6.55768 110.32751 20074 ft 409 kts 303°
2026-04-15 06:40 -6.54175 110.30372 20526 ft 412 kts 303°
2026-04-15 06:40 -6.52567 110.27971 20980 ft 415 kts 303°
2026-04-15 06:40 -6.50954 110.25547 21420 ft 418 kts 301°
2026-04-15 06:40 -6.49617 110.22945 21844 ft 421 kts 291°
2026-04-15 06:41 -6.48732 110.20136 22255 ft 423 kts 282°
2026-04-15 06:41 -6.48123 110.17234 22651 ft 426 kts 281°
2026-04-15 06:41 -6.47509 110.14312 23030 ft 429 kts 282°
2026-04-15 06:41 -6.46887 110.11369 23394 ft 432 kts 282°
2026-04-15 06:42 -6.46259 110.08409 23768 ft 434 kts 282°
2026-04-15 06:42 -6.45626 110.05435 24137 ft 437 kts 282°
2026-04-15 06:42 -6.44986 110.02442 24503 ft 439 kts 282°
2026-04-15 06:42 -6.44352 109.99472 24835 ft 442 kts 282°
2026-04-15 06:43 -6.43699 109.96401 25177 ft 444 kts 281°
2026-04-15 06:43 -6.43059 109.93390 25502 ft 447 kts 282°
2026-04-15 06:43 -6.42408 109.90329 25835 ft 450 kts 282°
2026-04-15 06:43 -6.41751 109.87246 26137 ft 452 kts 282°
2026-04-15 06:44 -6.41091 109.84152 26445 ft 454 kts 281°
2026-04-15 06:44 -6.40425 109.81032 26737 ft 457 kts 282°
2026-04-15 06:44 -6.39757 109.77901 27027 ft 459 kts 282°
2026-04-15 06:44 -6.39085 109.74756 27299 ft 462 kts 282°
2026-04-15 06:45 -6.38407 109.71585 27574 ft 465 kts 282°
2026-04-15 06:45 -6.37728 109.68401 27848 ft 467 kts 282°
2026-04-15 06:45 -6.37042 109.65195 28129 ft 470 kts 282°
2026-04-15 06:45 -6.36352 109.61979 28403 ft 473 kts 282°
2026-04-15 06:46 -6.35657 109.58741 28686 ft 475 kts 282°
2026-04-15 06:46 -6.34960 109.55486 28965 ft 477 kts 282°
2026-04-15 06:46 -6.34262 109.52221 29222 ft 479 kts 282°
2026-04-15 06:46 -6.33561 109.48932 29494 ft 482 kts 282°
2026-04-15 06:47 -6.32857 109.45640 29768 ft 483 kts 282°
2026-04-15 06:47 -6.32148 109.42327 30041 ft 485 kts 281°
2026-04-15 06:47 -6.31438 109.39009 30345 ft 486 kts 281°
2026-04-15 06:47 -6.30724 109.35682 30750 ft 485 kts 281°
2026-04-15 06:48 -6.30176 109.32348 31108 ft 484 kts 274°
2026-04-15 06:48 -6.30094 109.28968 31469 ft 483 kts 268°
2026-04-15 06:48 -6.30119 109.25597 31763 ft 483 kts 269°
2026-04-15 06:49 -6.30152 109.18892 31836 ft 477 kts 269°
2026-04-15 06:49 -6.30171 109.12238 31838 ft 475 kts 269°
2026-04-15 06:50 -6.30207 109.02280 31835 ft 475 kts 269°
2026-04-15 06:50 -6.30227 108.95637 31837 ft 475 kts 269°
2026-04-15 06:51 -6.30253 108.89007 31837 ft 475 kts 269°
2026-04-15 06:51 -6.30276 108.82409 31837 ft 475 kts 269°
2026-04-15 06:52 -6.30297 108.75771 31844 ft 475 kts 269°
2026-04-15 06:52 -6.30317 108.69134 31838 ft 475 kts 269°
2026-04-15 06:53 -6.30338 108.62498 31837 ft 475 kts 269°
2026-04-15 06:53 -6.30354 108.55863 31836 ft 475 kts 269°
2026-04-15 06:54 -6.30374 108.49232 31836 ft 475 kts 269°
2026-04-15 06:54 -6.30398 108.42593 31837 ft 475 kts 269°
2026-04-15 06:55 -6.29594 108.36031 31836 ft 476 kts 287°
2026-04-15 06:55 -6.28351 108.32947 31849 ft 476 kts 298°
2026-04-15 06:55 -6.26596 108.30142 31851 ft 475 kts 308°
2026-04-15 06:56 -6.22103 108.25298 31850 ft 474 kts 315°
2026-04-15 06:56 -6.17507 108.20540 31636 ft 475 kts 315°
2026-04-15 06:57 -6.15208 108.18154 31386 ft 475 kts 315°
2026-04-15 06:57 -6.12908 108.15767 31134 ft 475 kts 315°
2026-04-15 06:57 -6.10604 108.13380 30883 ft 475 kts 315°
2026-04-15 06:57 -6.08300 108.11006 30853 ft 475 kts 315°
2026-04-15 06:58 -6.03670 108.06255 30865 ft 476 kts 315°
2026-04-15 06:58 -5.99278 108.01289 30851 ft 477 kts 303°
2026-04-15 06:59 -5.97722 107.98405 30849 ft 477 kts 292°
2026-04-15 06:59 -5.96670 107.95251 30700 ft 476 kts 283°
2026-04-15 06:59 -5.96176 107.91983 30078 ft 472 kts 272°
2026-04-15 06:59 -5.96157 107.88699 29448 ft 469 kts 269°
2026-04-15 07:00 -5.96171 107.85433 28819 ft 466 kts 269°
2026-04-15 07:00 -5.96178 107.82187 28186 ft 463 kts 270°
2026-04-15 07:00 -5.96182 107.78958 27559 ft 460 kts 270°
2026-04-15 07:00 -5.96180 107.75757 26937 ft 457 kts 270°
2026-04-15 07:01 -5.96175 107.72579 26412 ft 451 kts 270°
2026-04-15 07:01 -5.96169 107.69466 26051 ft 442 kts 270°
2026-04-15 07:01 -5.96166 107.66390 25494 ft 438 kts 270°
2026-04-15 07:01 -5.96164 107.63341 24952 ft 434 kts 270°
2026-04-15 07:02 -5.96166 107.60317 24412 ft 431 kts 270°
2026-04-15 07:02 -5.96166 107.57331 23840 ft 422 kts 269°
2026-04-15 07:02 -5.96166 107.54402 22901 ft 416 kts 269°
2026-04-15 07:02 -5.96166 107.51524 22174 ft 408 kts 269°
2026-04-15 07:03 -5.96167 107.48685 21631 ft 405 kts 269°
2026-04-15 07:03 -5.96168 107.45856 21069 ft 405 kts 269°
2026-04-15 07:03 -5.96168 107.43036 20561 ft 402 kts 269°
2026-04-15 07:03 -5.96168 107.40239 20081 ft 398 kts 269°
2026-04-15 07:04 -5.96167 107.37468 19555 ft 395 kts 269°
2026-04-15 07:04 -5.96165 107.34731 19209 ft 387 kts 269°
2026-04-15 07:04 -5.96164 107.32063 18936 ft 377 kts 269°
2026-04-15 07:04 -5.96164 107.29442 18492 ft 374 kts 269°
2026-04-15 07:05 -5.96163 107.26846 18010 ft 371 kts 269°
2026-04-15 07:05 -5.96160 107.24284 17553 ft 368 kts 269°
2026-04-15 07:05 -5.96154 107.21721 17079 ft 365 kts 269°
2026-04-15 07:05 -5.96147 107.19217 16630 ft 362 kts 269°
2026-04-15 07:06 -5.96142 107.16669 16174 ft 358 kts 269°
2026-04-15 07:06 -5.96136 107.14177 15726 ft 355 kts 269°
2026-04-15 07:06 -5.96129 107.11837 15310 ft 352 kts 269°
2026-04-15 07:06 -5.96126 107.09554 14901 ft 350 kts 269°
2026-04-15 07:07 -5.96123 107.07089 14460 ft 347 kts 269°
2026-04-15 07:07 -5.96120 107.04676 14029 ft 345 kts 269°
2026-04-15 07:07 -5.96115 107.02310 13583 ft 343 kts 269°
2026-04-15 07:07 -5.96108 106.99910 13053 ft 343 kts 269°
2026-04-15 07:08 -5.96101 106.97519 12597 ft 342 kts 269°
2026-04-15 07:08 -5.96096 106.95145 12178 ft 339 kts 269°
2026-04-15 07:08 -5.96091 106.92778 11734 ft 337 kts 269°
2026-04-15 07:08 -5.96087 106.90443 11325 ft 334 kts 269°
2026-04-15 07:09 -5.96083 106.88114 10890 ft 332 kts 269°
2026-04-15 07:09 -5.96078 106.85806 10568 ft 327 kts 269°
2026-04-15 07:09 -5.96069 106.83563 10440 ft 315 kts 269°
2026-04-15 07:09 -5.96059 106.81400 10313 ft 305 kts 269°
2026-04-15 07:10 -5.96125 106.79310 10183 ft 294 kts 261°
2026-04-15 07:10 -5.96636 106.77352 9931 ft 288 kts 246°
2026-04-15 07:10 -5.97388 106.75504 9359 ft 285 kts 246°
2026-04-15 07:10 -5.98136 106.73673 8860 ft 281 kts 246°
2026-04-15 07:11 -5.98875 106.71862 8441 ft 279 kts 246°
2026-04-15 07:11 -5.99609 106.70058 8033 ft 281 kts 246°
2026-04-15 07:11 -6.00347 106.68239 7643 ft 283 kts 246°
2026-04-15 07:11 -6.01087 106.66415 7293 ft 282 kts 246°
2026-04-15 07:12 -6.01825 106.64599 6959 ft 282 kts 246°
2026-04-15 07:12 -6.02561 106.62785 6695 ft 279 kts 246°
2026-04-15 07:12 -6.03289 106.60986 6447 ft 275 kts 246°
2026-04-15 07:12 -6.03994 106.59235 6322 ft 267 kts 247°
2026-04-15 07:13 -6.04682 106.57531 6192 ft 259 kts 247°
2026-04-15 07:13 -6.05352 106.55871 5976 ft 255 kts 246°
2026-04-15 07:13 -6.06016 106.54227 5712 ft 254 kts 247°
2026-04-15 07:13 -6.06679 106.52588 5411 ft 253 kts 247°
2026-04-15 07:14 -6.07339 106.50953 5151 ft 252 kts 247°
2026-04-15 07:14 -6.07990 106.49334 4827 ft 248 kts 247°
2026-04-15 07:14 -6.08641 106.47721 4450 ft 250 kts 247°
2026-04-15 07:14 -6.09307 106.46079 3881 ft 261 kts 247°
2026-04-15 07:15 -6.10014 106.44342 3282 ft 273 kts 245°
2026-04-15 07:15 -6.11076 106.42796 3041 ft 268 kts 217°
2026-04-15 07:15 -6.12764 106.42124 2765 ft 264 kts 184°
2026-04-15 07:15 -6.14593 106.42204 2455 ft 262 kts 171°
2026-04-15 07:16 -6.16333 106.42686 2137 ft 259 kts 146°
2026-04-15 07:16 -6.17470 106.43982 1993 ft 241 kts 107°
2026-04-15 07:16 -6.17624 106.45570 2001 ft 222 kts 84°
2026-04-15 07:16 -6.17557 106.47067 1996 ft 206 kts 85°
2026-04-15 07:17 -6.17502 106.48486 2002 ft 201 kts 84°
2026-04-15 07:17 -6.17264 106.49827 2024 ft 186 kts 65°
2026-04-15 07:17 -6.16794 106.50947 1999 ft 163 kts 64°
2026-04-15 07:17 -6.16388 106.51955 2008 ft 150 kts 65°
2026-04-15 07:18 -6.15999 106.52924 2034 ft 147 kts 64°
2026-04-15 07:18 -6.15618 106.53872 2012 ft 145 kts 64°
2026-04-15 07:18 -6.15247 106.54799 2003 ft 145 kts 64°
2026-04-15 07:18 -6.14868 106.55746 1831 ft 144 kts 64°
2026-04-15 07:19 -6.14490 106.56687 1629 ft 144 kts 64°
2026-04-15 07:19 -6.14123 106.57603 1447 ft 143 kts 64°
2026-04-15 07:19 -6.13753 106.58528 1261 ft 142 kts 65°
2026-04-15 07:19 -6.13384 106.59446 1075 ft 142 kts 64°
2026-04-15 07:20 -6.13017 106.60364 920 ft 140 kts 64°
2026-04-15 07:20 -6.12648 106.61267 725 ft 140 kts 63°
2026-04-15 07:20 -6.12291 106.62186 581 ft 141 kts 65°
2026-04-15 07:20 -6.11922 106.63099 371 ft 140 kts 63°
2026-04-15 07:21 -6.11556 106.64011 175 ft 142 kts 66°
2026-04-15 07:21 -6.11195 106.64927 50 ft 141 kts 65°
2026-04-15 07:21 -6.10866 106.65736 37 ft 106 kts 69°
2026-04-15 07:21 -6.10662 106.66250 35 ft 41 kts 68°
2026-04-15 07:22 -6.10624 106.66482 33 ft 31 kts 94°
2026-04-15 07:22 -6.10639 106.66578 35 ft 11 kts 101°
2026-04-15 07:22 -6.10673 106.66648 36 ft 12 kts 146°
2026-04-15 07:22 -6.10771 106.66675 37 ft 12 kts 190°
2026-04-15 07:23 -6.10806 106.66631 37 ft 13 kts 250°
2026-04-15 07:23 -6.10828 106.66570 36 ft 10 kts 250°
2026-04-15 07:23 -6.10856 106.66497 37 ft 13 kts 248°
2026-04-15 07:23 -6.10894 106.66408 37 ft 15 kts 247°
2026-04-15 07:24 -6.10935 106.66306 37 ft 17 kts 248°
2026-04-15 07:24 -6.10982 106.66188 36 ft 19 kts 248°
2026-04-15 07:24 -6.11028 106.66071 38 ft 14 kts 248°
2026-04-15 07:24 -6.11068 106.65973 36 ft 16 kts 248°
2026-04-15 07:25 -6.11104 106.65878 38 ft 13 kts 249°
2026-04-15 07:25 -6.11141 106.65785 38 ft 15 kts 248°
2026-04-15 07:25 -6.11178 106.65692 38 ft 15 kts 248°
2026-04-15 07:25 -6.11220 106.65586 38 ft 18 kts 248°
2026-04-15 07:26 -6.11270 106.65461 37 ft 21 kts 248°
2026-04-15 07:26 -6.11327 106.65318 36 ft 24 kts 248°
2026-04-15 07:26 -6.11392 106.65156 38 ft 26 kts 248°
2026-04-15 07:26 -6.11464 106.64978 39 ft 29 kts 249°
2026-04-15 07:27 -6.11528 106.64813 36 ft 15 kts 248°
2026-04-15 07:27 -6.11602 106.64760 39 ft 15 kts 164°
2026-04-15 07:27 -6.11683 106.64795 41 ft 12 kts 162°
2026-04-15 07:27 -6.11763 106.64760 40 ft 15 kts 227°
2026-04-15 07:28 -6.11845 106.64679 40 ft 18 kts 221°
2026-04-15 07:28 -6.11954 106.64643 39 ft 18 kts 161°
2026-04-15 07:28 -6.12060 106.64686 38 ft 16 kts 158°
2026-04-15 07:28 -6.12173 106.64732 37 ft 19 kts 158°
2026-04-15 07:29 -6.12282 106.64767 38 ft 12 kts 178°
2026-04-15 07:29 -6.12352 106.64773 38 ft 5 kts 162°
2026-04-15 07:29 -6.12384 106.64787 38 ft 6 kts 145°
2026-04-15 07:29 -6.12395 106.64825 38 ft 3 kts 96°
2026-04-15 07:30 -6.12398 106.64855 38 ft 5 kts 95°
2026-04-15 07:30 -6.12400 106.64877 38 ft 1 kts 96°
2026-04-15 07:30 -6.12401 106.64888 38 ft 1 kts 96°
2026-04-15 07:30 -6.12401 106.64889 38 ft 0 kts 96°